Regional Weather Roundup
Issued by NWS

Home | Current Version | Previous Version | Text Only | Print | Product List | Glossary Off
Versions: 1 2 3 4 5 6 7 8 9 10 11 12 13 14 15 16 17 18 19 20 21 22 23 24 25 26 27 28 29 30 31 32 33 34 35 36 37 38 39 40 41 42 43 44 45 46 47 48 49 50

000
ASUS45 KCYS 281110
RWRWY

WYOMING REGIONAL WEATHER ROUNDUP
NATIONAL WEATHER SERVICE CHEYENNE WY
500 AM MDT WED JUN 28 2017

NOTE:  "FAIR" INDICATES FEW OR NO CLOUDS BELOW 12,000 FEET
WITH NO SIGNIFICANT WEATHER AND/OR OBSTRUCTIONS TO VISIBILITY.

WYZ001-281200-
YELLOWSTONE NATIONAL PARK

CITY           SKY/WX    TMP DP  RH WIND       PRES   REMARKS
LK YELLOWSTONE   N/A     36  36 100 CALM      30.07S
W YELLOWSTONE  NOT AVBL

$$
WYZ002>013-054>058-071-098>099-281200-
NORTHERN WYOMING

CITY           SKY/WX    TMP DP  RH WIND       PRES   REMARKS
JACKSON        FAIR      41  41 100 CALM      30.03R
CODY           FAIR      58  41  53 CALM      29.89R
GREYBULL       FAIR      54  45  71 SE6       29.83F
WORLAND        FAIR      49  45  86 N3        29.85S
SHERIDAN       FAIR      50  46  86 CALM      29.83R
BUFFALO        FAIR      52  41  66 SW9       29.89S
GILLETTE       FAIR      53  50  89 CALM      29.85S
NEWCASTLE      FAIR      52  45  76 N8        29.87R

$$
WYZ014>020-022>026-101>103-281200-
CENTRAL WYOMING

CITY           SKY/WX    TMP DP  RH WIND       PRES   REMARKS
BIG PINEY      FAIR      38  33  82 E6        30.04S WCI  33
PINEDALE       CLOUDY    41  39  93 CALM      30.06R
DUBOIS         FAIR      41  36  81 NW9       30.02S
LANDER         FAIR      50  39  66 NW9       29.95R
RIVERTON       FAIR      48  39  71 SW3       29.93S
CASPER         FAIR      47  40  76 W9        29.92F
DOUGLAS        FAIR      47  41  80 N3        29.92R

$$
WYZ021-027>030-104>119-281200-
SOUTHERN WYOMING

CITY           SKY/WX    TMP DP  RH WIND       PRES   REMARKS
EVANSTON       FAIR      52  29  41 S7        30.05R
KEMMERER         N/A     41  34  75 N5        30.06S
FORT BRIDGER   FAIR      53  29  39 S10       30.07R
ROCK SPRINGS   FAIR      51  33  50 N3        30.02S
DIXON          FAIR      46  38  74 CALM      30.05R
RAWLINS        FAIR      45  38  76 CALM      30.02F
SARATOGA       FAIR      45  45 100 SE9       30.05S
LARAMIE        FAIR      42  35  76 SE7       30.06R
CHEYENNE       FAIR      52  39  61 W10       30.00R
TORRINGTON     FAIR      52  44  74 W3        29.88S
PINE BLUFFS    FAIR      46  41  81 MISG      29.95S

$$



USA.gov is the U.S. government's official web portal to all federal, state and local government web resources and services.